Flag for U.S.A. Weather past 2 weeks in Anchorage, Alaska, U.S.A.

Now
2 °F

Passing clouds.


Feels Like: -8 °F
Forecast: -6 / 2 °F
Wind: 5 mph from North

Location: Lake Hood Seaplane

Current Time: Jan 26, 2015 at 1:47:47 AM

Latest Report: Jan 26, 2015 at 12:53 AM


Visibility: 10 mi

Pressure: 30.05 "Hg

Humidity: 76%

Dew point: -4 °F

Location of AnchorageLocation

Historic Weather in Anchorage — Graph

°F

Anchorage temperature yesterday

Maximum temperature yesterday: 11 °F (at 1:53 AM)
Minimum temperature yesterday: -2 °F (at 9:53 PM)
Average temperature yesterday: 5 °F

Past Weeks' High & Low Weather Summary

 TemperatureHumidityPressure
High42 °F (Jan 15, 3:53 PM)89% (Jan 11, 9:53 AM)30.05 "Hg (Jan 11, 9:53 AM)
Low-2 °F (Jan 25, 9:53 PM)40% (Jan 24, 8:53 PM)28.79 "Hg (Jan 15, 3:53 PM)
Average24 °F76%29.45 "Hg
* Reported Jan 11 12:53 AM — Jan 26 12:53 AM, Anchorage, Weather by CustomWeather, © 2014

Note: Actual official high and low records may vary slightly from our data, if they occured in-between our weather recording intervals... More about our weather records

Advertising

Anchorage weather history for previous 24 hours

 ConditionsComfort  
Time TempWeatherWind HumidityBarometerVisibility
12:53 AM
Jan 26
2 °FPassing clouds.5 mph76%30.05 "Hg10 mi
11:53 PM
Jan 25
2 °FLow clouds.No wind80%30.03 "Hg3 mi
10:53 PM-1 °FLow clouds.No wind71%30.01 "Hg5 mi
9:53 PM-2 °FClear.3 mph78%29.99 "Hg10 mi
8:53 PM-1 °FClear.No wind68%29.97 "Hg10 mi
7:53 PM1 °FClear.5 mph75%29.95 "Hg10 mi
6:53 PM4 °FClear.No wind76%29.93 "Hg10 mi
5:53 PM4 °FClear.No wind73%29.90 "Hg10 mi
4:53 PM4 °FClear.No wind69%29.88 "Hg10 mi
3:53 PM5 °FSunny.5 mph69%29.86 "Hg10 mi
2:53 PM6 °FSunny.No wind66%29.83 "Hg10 mi
1:53 PM9 °FSunny.5 mph52%29.81 "Hg10 mi
12:53 PM9 °FSunny.6 mph55%29.79 "Hg10 mi
11:53 AM4 °FSunny.No wind69%29.76 "Hg10 mi
10:53 AM1 °FSunny.No wind75%29.73 "Hg6 mi
9:53 AM1 °FSunny.No wind72%29.71 "Hg10 mi
8:53 AM3 °FClear.No wind66%29.68 "Hg10 mi
7:53 AM7 °FClear.6 mph52%29.66 "Hg10 mi
6:53 AM9 °FClear.8 mph50%29.63 "Hg10 mi
5:53 AM10 °FClear.8 mph43%29.61 "Hg10 mi
4:53 AM11 °FClear.12 mph46%29.58 "Hg10 mi
3:53 AM11 °FClear.16 mph44%29.56 "Hg10 mi
2:53 AM11 °FClear.12 mph44%29.54 "Hg10 mi
1:53 AM11 °FClear.12 mph44%29.52 "Hg10 mi
Weather by CustomWeather, © 2014

See weather overviewHow to use our weather pages